GFSWCAN_925_thetae_060.txt.gz
Theta_e
315 314 312 311 310 308 308 308 304 300 301 301 301 300 297 297 296 299 311 311 309 305 307 311 311 311 310 312 315 313 323 323 324 328 330 330 333 331 330 333 334 334 335 335 332 333 336 336 344 346 344 338 340 340
316 314 312 311 310 309 308 307 305 300 301 301 301 300 298 297 296 299 309 310 311 305 305 311 310 311 310 311 309 309 314 321 323 323 325 327 333 329 332 334 329 335 331 331 339 338 330 332 333 332 332 332 333 340
315 315 313 311 310 309 308 308 306 301 300 301 301 301 298 297 296 297 306 311 311 308 309 309 309 313 313 312 315 311 316 317 319 318 320 324 329 328 330 331 330 332 331 334 333 334 330 330 328 328 327 328 329 333
315 315 313 311 310 309 308 308 307 301 300 300 301 301 299 297 297 296 302 308 310 310 312 312 314 315 314 314 314 316 315 316 315 316 320 321 323 325 328 326 326 328 330 331 334 332 328 329 327 328 329 328 328 328
314 315 313 311 310 309 308 308 307 302 300 300 301 301 299 297 297 298 304 309 309 310 313 312 314 315 314 315 315 314 316 314 313 314 317 317 320 320 320 320 329 326 328 325 326 328 326 327 326 327 329 330 328 327
312 314 312 311 309 309 308 308 307 302 300 300 301 302 300 297 297 307 310 310 308 307 311 314 312 314 313 316 315 314 313 312 313 312 312 312 319 319 321 323 327 328 328 324 326 324 327 327 328 330 331 332 331 326
309 312 311 310 309 309 308 308 307 301 300 300 302 302 300 297 297 305 309 309 306 307 311 313 312 312 315 315 312 311 312 311 309 309 311 311 312 317 318 321 320 330 328 328 324 327 326 323 324 329 333 332 327 323
308 309 310 309 309 308 308 308 306 300 300 300 302 301 299 297 297 301 306 307 307 310 309 311 313 313 314 312 312 309 311 311 313 310 310 310 309 315 317 316 325 325 327 327 326 326 320 321 322 327 331 335 333 328
307 309 309 309 308 308 308 307 303 300 300 302 302 299 297 298 305 312 311 307 308 312 313 312 310 318 312 311 310 313 310 314 310 313 312 312 310 312 314 315 319 323 324 325 323 320 321 322 324 329 329 329 329 329
304 307 309 309 308 308 308 306 301 300 301 302 298 303 305 308 310 301 304 307 307 307 307 310 309 312 314 314 312 315 312 313 317 314 312 312 313 318 317 317 317 316 316 319 321 322 323 328 327 328 327 327 327 328
304 304 309 309 308 308 308 302 300 301 301 298 302 304 311 308 306 309 313 311 309 310 306 306 305 307 307 316 316 315 317 315 316 314 318 320 324 322 320 319 317 318 317 317 319 319 319 326 326 326 325 324 324 326
304 306 307 308 308 307 305 300 301 301 299 302 304 305 306 309 311 313 312 312 311 312 310 308 307 306 310 312 317 316 318 316 317 316 319 321 321 319 319 319 318 317 322 319 319 318 318 324 327 324 322 322 321 321
306 307 308 308 307 307 302 302 302 301 303 303 305 310 308 309 309 313 314 313 311 311 311 309 309 311 310 311 313 313 317 317 317 321 321 321 319 316 315 316 317 319 322 323 324 323 323 324 325 325 324 321 322 324
306 308 306 305 304 303 302 302 301 301 301 307 309 306 308 310 310 309 310 310 309 310 310 310 312 310 311 312 313 316 315 317 320 322 322 319 318 318 315 317 321 321 319 320 322 323 323 323 323 323 323 324 323 323
302 302 302 302 302 302 302 302 301 300 302 309 310 307 309 309 307 307 307 312 312 311 312 314 314 314 313 316 315 316 320 321 321 321 319 319 318 317 318 319 320 319 319 319 321 321 323 323 322 323 323 323 323 322
300 300 301 301 301 301 301 301 300 301 305 309 311 312 306 308 308 308 312 313 312 313 313 314 317 317 318 316 318 318 319 321 320 318 316 316 316 315 316 316 318 320 320 319 320 321 321 322 322 321 322 321 321 320
300 300 301 300 300 300 300 303 303 304 309 311 310 309 308 310 315 314 312 314 313 314 317 316 318 319 319 318 319 319 321 318 318 315 312 314 315 318 315 318 320 321 320 320 321 321 322 322 321 319 319 321 320 318
299 300 300 300 301 302 302 301 304 307 309 307 309 309 312 313 313 313 313 313 313 316 315 318 317 318 320 322 322 318 315 312 312 313 313 313 316 319 319 318 319 319 320 321 320 321 321 319 318 318 319 318 318 318
300 300 300 301 301 301 305 305 306 308 307 305 307 309 311 312 311 311 310 312 315 316 315 317 318 319 318 316 317 316 315 315 317 315 313 316 319 319 319 318 319 319 320 320 320 319 318 318 317 318 319 317 317 317
300 302 303 303 302 304 307 306 306 307 310 310 310 311 312 311 311 312 311 311 313 313 314 318 317 316 315 314 314 315 317 315 314 316 317 316 318 318 317 318 318 318 319 319 319 320 318 317 317 317 318 317 317 317
302 302 302 303 305 305 306 307 306 306 310 311 310 310 312 311 310 311 312 310 312 313 318 316 315 312 315 316 317 316 314 317 315 313 313 314 316 318 317 318 318 319 318 318 317 317 317 317 317 318 318 317 317 316
302 303 304 304 304 308 307 309 308 310 311 312 312 312 313 312 311 311 311 312 315 313 314 315 314 313 315 317 318 319 318 317 317 315 316 317 313 315 317 319 319 317 318 317 318 318 318 318 318 315 314 315 317 317
304 305 306 307 307 303 304 310 311 312 314 313 312 314 313 313 311 310 313 311 311 315 317 317 318 319 318 319 318 318 318 318 316 316 315 316 318 319 319 318 319 317 315 316 317 316 317 314 313 315 316 316 317 317
304 305 307 309 308 306 310 311 310 311 312 313 315 317 315 313 312 313 314 312 311 316 317 316 316 314 316 317 314 317 318 318 317 317 317 318 316 318 317 318 318 317 316 315 313 313 313 314 314 315 314 315 315 315
303 302 303 301 306 312 309 309 309 310 314 314 315 315 314 312 313 313 314 313 315 314 315 317 314 314 314 314 316 318 318 317 317 314 318 318 318 317 318 318 317 316 315 316 317 317 317 316 316 315 315 315 314 313
304 307 306 309 309 309 308 311 311 312 315 316 316 314 313 314 315 310 316 315 315 314 314 314 313 313 314 316 314 316 317 316 318 316 316 316 317 317 315 313 313 315 316 315 316 316 314 314 314 314 313 314 314 313
306 311 311 308 310 309 309 310 312 315 316 316 313 313 314 315 315 315 314 315 314 317 319 318 317 316 314 316 317 318 319 318 318 317 317 316 317 318 317 315 313 314 315 314 315 315 315 314 314 315 314 314 314 314
308 309 311 310 311 311 312 313 314 315 314 313 314 313 313 318 317 314 313 318 317 318 318 318 317 317 317 317 317 318 319 318 317 318 318 318 317 315 315 315 315 315 314 313 314 314 314 314 314 315 315 314 314 314
310 309 309 310 309 310 311 312 315 314 314 313 316 316 316 313 314 315 317 317 317 317 316 316 317 317 316 318 318 317 317 318 318 317 317 316 315 316 316 315 315 315 314 311 312 312 312 311 311 312 312 314 314 313
311 309 311 312 311 311 314 314 315 314 312 313 312 311 312 315 317 317 317 317 316 316 316 317 317 317 317 316 315 315 317 318 318 318 314 314 315 315 316 316 315 315 313 310 311 312 313 313 313 312 313 313 314 313
310 310 312 311 312 311 311 313 316 315 314 314 313 314 314 314 316 315 315 314 315 317 317 318 317 317 316 315 317 317 316 316 316 316 316 316 316 316 314 315 315 315 315 312 313 313 314 314 314 314 314 314 313 313
311 312 313 314 315 314 315 315 315 316 316 316 316 315 317 316 318 317 317 317 318 318 317 317 318 318 316 317 318 318 317 316 316 316 316 314 315 315 315 313 314 314 314 314 315 314 315 314 313 314 313 312 311 311
313 312 313 314 317 317 317 317 318 318 318 318 317 316 317 319 319 316 316 316 316 316 316 317 317 317 317 317 317 317 317 317 316 314 311 311 311 311 312 313 314 314 314 314 314 314 314 314 313 311 311 311 311 310

GFSWCAN_925_thetae_063.txt.gz
Theta_e
316 315 313 312 312 311 310 309 308 307 302 300 301 301 300 297 297 297 304 308 307 303 304 309 309 309 308 311 314 312 321 320 321 327 329 329 332 331 330 331 334 332 334 336 330 329 334 333 335 343 338 333 336 334
314 315 314 313 312 311 310 309 308 307 303 301 301 301 300 298 297 296 305 307 309 304 303 308 309 310 309 310 308 310 316 320 320 321 322 325 330 326 328 333 328 331 329 332 336 336 331 329 329 329 329 329 330 333
313 315 315 313 312 311 310 309 309 307 303 301 301 301 301 298 297 296 299 307 309 306 307 308 308 311 311 311 313 311 315 316 317 316 318 321 326 325 328 329 330 330 328 332 331 333 330 329 327 326 326 327 327 328
312 314 314 314 312 311 310 310 309 307 304 301 301 301 301 299 297 297 297 303 308 306 311 310 313 313 313 313 314 315 313 313 312 314 317 319 322 322 325 324 327 325 327 329 330 329 327 329 326 326 327 328 328 328
310 313 314 314 313 311 310 310 309 308 305 301 300 301 302 300 297 297 298 306 306 308 312 311 312 315 314 314 313 314 313 310 310 312 315 316 316 319 318 323 329 324 326 322 323 324 323 324 325 327 328 330 329 325
308 309 313 314 313 311 310 309 309 308 306 300 300 301 302 300 298 302 307 307 305 307 308 313 310 311 312 314 313 311 309 309 309 310 310 309 311 315 319 322 324 325 324 321 325 323 324 325 326 329 331 331 325 326
305 309 311 313 312 311 310 309 308 308 305 300 300 301 302 300 298 301 307 309 306 305 310 311 310 309 313 311 309 308 309 308 307 306 309 309 309 315 315 318 317 327 326 326 322 325 324 323 324 328 331 331 326 327
304 307 309 312 311 310 309 309 308 307 302 300 300 302 302 300 297 300 304 303 303 307 306 310 311 311 312 310 311 305 309 308 309 308 307 308 307 311 315 313 315 326 325 325 324 323 320 320 321 321 327 332 332 329
304 304 308 310 310 309 309 308 308 307 300 300 301 302 298 298 300 308 309 307 307 310 310 308 311 315 309 308 308 309 307 312 308 311 310 309 308 320 317 316 316 320 326 325 323 323 321 319 321 325 328 327 327 328
303 304 306 309 309 309 308 308 307 303 300 301 302 300 302 305 308 308 303 305 305 304 305 309 306 312 310 311 310 313 309 311 314 312 309 310 320 318 317 316 314 315 316 317 320 321 321 324 324 324 326 325 325 324
300 304 304 308 309 308 308 307 303 300 301 301 300 302 308 307 305 307 310 308 306 309 305 305 306 309 306 313 312 311 314 311 314 313 316 318 321 319 318 317 315 315 318 316 318 317 320 323 324 323 324 322 323 323
302 303 304 305 309 308 307 305 300 301 301 299 303 304 305 309 310 312 312 310 310 311 307 306 305 303 305 310 315 313 315 314 316 313 317 321 318 316 315 315 315 315 320 321 321 320 323 324 323 321 321 321 319 321
303 303 304 305 308 307 308 301 301 301 300 303 303 308 307 307 308 313 313 313 310 309 309 307 307 308 308 308 311 312 316 315 314 317 318 317 316 315 313 315 317 319 320 322 323 322 322 323 323 322 320 321 323 323
302 305 305 306 308 307 304 301 302 301 303 306 309 307 309 310 310 310 311 309 308 308 308 308 308 309 308 311 311 314 314 314 318 321 321 316 316 316 314 315 317 318 319 320 320 322 321 322 322 322 322 322 322 321
304 306 307 307 306 305 302 302 301 301 302 309 310 309 309 308 306 305 304 307 310 307 311 311 311 309 311 314 312 314 318 319 319 319 316 315 316 315 315 317 318 318 318 318 318 320 321 321 321 321 321 321 320 319
303 304 304 304 303 303 302 301 301 302 304 309 310 311 307 307 307 306 310 311 309 310 311 311 314 315 316 315 316 317 318 319 317 315 313 314 313 313 315 316 318 320 318 317 318 319 320 320 319 319 320 320 318 317
300 302 302 302 302 302 302 302 304 306 308 310 310 307 306 309 313 312 309 312 310 312 315 313 317 318 315 317 320 318 318 315 313 312 310 311 311 314 314 315 319 318 318 319 318 320 320 320 318 318 317 317 317 317
301 301 301 301 302 302 303 302 304 307 309 306 309 309 310 311 311 311 310 310 313 313 313 318 313 317 318 320 319 315 312 310 309 310 309 310 313 316 317 316 317 317 318 319 319 319 318 317 316 316 317 317 317 318
300 300 300 301 302 303 303 304 303 309 309 307 307 308 309 310 308 308 308 309 311 311 312 313 317 317 315 312 315 313 312 311 312 312 310 312 314 317 317 316 317 317 319 318 318 317 317 317 316 318 318 316 316 317
300 300 303 303 302 303 307 306 305 307 310 310 309 309 310 309 308 308 308 309 309 309 312 314 315 314 312 311 311 311 312 310 310 313 313 313 316 316 315 316 316 316 317 318 318 318 316 316 316 317 316 316 317 316
301 301 302 302 303 303 306 306 306 306 308 310 309 309 310 307 307 309 309 306 310 310 315 312 313 310 312 313 314 313 312 314 312 312 312 312 314 315 315 316 317 317 316 316 315 315 317 316 316 318 318 317 316 316
302 303 303 303 305 307 307 307 307 307 310 311 312 310 310 310 310 310 307 309 311 310 312 312 310 309 312 314 315 316 317 315 314 312 314 314 311 312 313 316 317 316 316 315 316 316 316 317 317 316 316 316 316 315
304 305 306 306 307 305 306 308 310 310 313 312 311 313 311 311 309 307 310 308 308 308 312 312 313 314 314 317 317 316 316 315 312 313 313 314 315 317 317 317 317 316 313 314 316 317 316 315 315 314 315 315 315 316
305 305 306 307 307 308 308 308 306 309 310 312 313 315 313 311 309 310 312 309 308 312 313 313 314 312 313 314 312 314 316 316 315 315 316 315 314 316 317 317 317 316 315 312 313 313 313 313 313 313 314 314 313 314
299 300 304 303 307 309 308 308 308 310 312 312 314 313 313 309 312 311 312 310 311 315 312 313 313 310 312 312 312 315 317 317 314 312 316 316 317 316 316 316 317 316 315 315 315 315 315 315 315 315 313 313 314 312
303 307 304 308 305 307 307 310 310 310 313 315 314 312 310 312 313 310 312 312 312 311 311 311 311 311 311 313 311 312 316 316 317 315 316 317 317 316 314 314 313 316 316 316 316 315 316 314 313 313 313 313 313 313
306 311 309 308 309 308 307 308 310 312 315 315 313 312 313 314 315 313 311 311 310 315 317 316 315 313 312 315 316 317 316 316 317 317 316 316 317 316 316 315 313 315 314 314 314 314 314 314 314 313 313 314 313 313
306 308 310 309 310 309 312 312 314 315 316 314 310 313 315 315 314 311 310 316 316 317 317 317 317 317 316 316 316 317 317 317 317 317 317 317 316 317 316 315 315 315 314 314 314 314 314 314 314 314 314 314 314 313
307 306 306 308 307 308 310 312 313 312 311 310 313 314 313 310 311 312 315 316 317 317 316 315 316 317 316 317 317 317 317 317 317 316 317 315 313 315 316 316 315 315 314 314 313 312 312 311 311 311 312 313 313 313
308 305 308 310 309 310 313 310 312 310 309 310 309 308 309 311 316 316 316 316 315 315 315 315 316 316 315 315 315 315 315 316 317 317 316 314 315 315 315 315 315 315 315 315 314 311 311 311 311 312 311 312 313 314
307 308 309 308 309 308 309 310 313 312 311 311 310 311 311 310 315 316 315 315 314 316 316 316 315 316 315 315 316 317 317 316 316 316 316 316 315 315 316 315 315 315 315 315 315 313 310 311 311 312 313 313 313 313
310 312 312 313 314 312 311 313 313 314 314 316 316 315 316 316 317 316 316 317 317 316 317 316 316 315 316 314 314 316 317 317 317 316 316 316 315 313 314 314 314 314 314 314 315 315 314 314 314 313 313 313 313 312
312 313 313 314 317 317 316 317 318 318 318 318 317 316 316 317 318 314 315 315 316 317 317 317 317 317 317 316 316 316 316 317 316 316 316 315 311 310 310 310 311 312 314 314 314 314 314 313 314 314 313 313 311 311

GFSWCAN_925_thetae_069.txt.gz
Theta_e
306 310 312 316 316 316 314 313 311 310 309 308 306 302 301 302 300 298 298 299 305 308 309 308 310 310 310 313 317 319 324 326 328 332 331 331 334 334 336 335 338 337 339 334 329 333 339 331 335 344 341 336 333 335
305 308 311 315 315 314 313 312 311 310 309 308 306 302 301 302 300 298 298 303 304 306 311 308 309 309 308 308 312 318 322 325 324 329 328 332 332 332 337 339 333 339 335 343 341 339 335 332 332 330 330 333 332 332
305 306 310 312 314 314 313 312 311 310 310 309 306 303 301 302 301 299 298 297 304 309 312 309 309 308 308 308 309 316 319 320 322 319 326 329 333 330 335 336 335 334 332 335 334 337 335 333 331 330 331 332 332 332
303 304 308 310 312 314 313 312 311 311 310 309 307 305 301 302 302 301 299 298 298 308 314 312 312 313 312 309 310 312 317 315 317 318 324 325 328 325 330 330 332 330 331 333 331 332 332 330 331 331 331 330 330 328
303 303 305 308 311 314 313 312 312 311 310 309 308 305 302 302 302 302 300 298 297 308 314 314 311 312 310 310 313 312 313 316 317 321 322 323 323 325 324 330 329 328 331 326 325 329 329 329 329 330 332 332 330 328
303 303 303 306 308 312 313 312 312 311 310 309 307 305 302 302 303 299 306 305 298 303 310 313 312 314 311 311 312 314 314 315 316 317 317 315 313 322 327 332 329 328 327 323 328 327 329 329 329 329 332 332 330 332
297 302 303 303 307 308 312 313 312 311 310 309 307 303 301 302 303 300 306 304 302 303 309 313 316 312 310 312 312 313 312 313 313 314 316 315 315 321 321 326 321 323 328 329 327 328 328 327 328 325 327 328 331 331
293 296 303 303 305 309 310 312 312 311 310 308 305 301 301 302 302 300 299 299 303 301 308 315 316 315 311 316 316 310 315 314 314 313 313 315 315 317 323 320 323 322 326 327 327 327 324 326 328 327 325 329 331 331
293 293 298 303 304 308 309 312 311 310 308 307 302 301 302 301 299 298 305 304 300 305 314 311 316 319 312 313 313 315 313 318 312 317 316 316 320 321 325 325 324 323 324 326 324 325 327 328 327 327 325 330 330 328
294 293 294 302 305 308 309 311 310 308 306 301 302 300 301 298 301 305 306 308 309 310 310 314 311 318 314 315 316 319 316 318 320 318 316 324 325 323 322 322 321 322 322 321 325 325 324 327 329 329 329 329 327 325
294 294 294 301 304 308 310 309 308 304 301 302 300 300 302 308 307 306 308 308 306 309 309 312 314 317 312 319 320 317 319 317 320 320 322 325 326 325 321 320 321 323 324 322 321 321 323 326 328 328 328 327 323 326
294 294 294 297 304 308 309 308 306 302 302 301 300 303 305 308 309 310 315 311 309 307 309 310 314 311 313 316 322 318 321 318 320 319 322 322 326 322 320 321 322 323 325 326 326 327 327 326 325 325 324 325 326 325
295 294 295 297 303 308 308 307 303 302 303 300 304 307 307 309 312 314 316 315 314 313 311 309 312 313 314 315 317 319 321 319 319 322 321 323 323 320 321 322 323 323 323 324 324 324 325 325 324 323 324 324 324 323
295 295 297 300 303 306 307 303 302 303 303 306 308 310 309 311 313 315 313 314 313 312 311 311 312 316 314 318 316 319 318 319 321 321 322 326 323 322 322 322 323 323 322 323 324 323 323 323 322 323 323 322 321 320
297 298 299 302 303 305 304 303 303 303 303 309 310 310 309 310 310 310 311 309 309 311 312 315 315 316 316 317 317 319 320 320 320 322 325 324 323 323 323 323 324 323 322 322 321 322 322 323 323 323 321 320 319 318
299 300 301 301 302 304 303 302 301 302 305 307 309 312 311 309 310 309 309 311 311 312 314 317 318 319 319 318 319 319 319 319 323 322 322 322 322 320 321 321 322 321 319 318 319 320 321 322 323 322 320 319 316 314
301 301 301 302 304 303 302 301 301 303 308 311 311 310 310 309 310 310 311 314 312 316 319 319 319 318 318 320 320 320 321 323 320 319 321 322 322 320 319 320 321 320 319 320 321 321 321 320 321 320 319 318 314 313
305 304 303 303 302 302 302 302 303 307 309 310 308 311 310 311 315 315 314 313 316 317 319 321 319 321 321 321 323 322 321 318 317 318 320 319 318 320 320 321 320 319 319 320 320 320 320 319 319 319 318 318 316 315
304 303 302 301 301 302 303 303 303 310 311 311 311 311 313 314 311 311 314 313 314 315 318 319 321 321 322 320 321 320 319 319 320 318 318 316 318 319 320 318 317 318 320 319 320 320 318 318 319 319 317 317 318 316
302 301 301 303 304 305 304 307 304 310 313 313 313 313 314 314 312 312 313 313 316 318 318 320 321 321 321 319 318 319 318 317 319 322 322 320 315 317 319 317 318 318 318 319 318 316 317 317 317 318 317 316 317 315
303 303 303 304 304 303 307 309 310 310 312 315 313 312 314 313 314 315 315 313 318 318 319 318 319 317 315 315 316 317 318 318 320 319 320 321 318 319 318 317 317 317 319 319 320 318 316 318 318 317 317 317 318 316
302 303 303 303 304 307 309 308 311 310 313 314 314 313 315 316 316 315 311 317 317 316 317 317 318 318 319 319 317 317 318 317 315 313 312 312 319 319 318 318 319 319 319 319 319 319 318 317 318 318 317 316 316 316
304 304 303 304 308 309 310 308 312 313 316 315 315 317 315 316 314 311 315 313 314 313 314 315 315 316 319 317 317 317 316 317 318 317 315 316 317 317 317 318 318 319 319 318 317 318 318 317 316 316 316 315 317 317
302 305 308 310 310 310 309 310 310 313 314 315 316 316 316 316 313 316 317 316 315 315 317 317 317 319 318 318 319 318 317 317 317 317 315 316 318 318 318 318 318 317 315 316 316 317 316 317 314 315 316 315 316 316
306 306 308 307 307 309 310 311 312 314 315 315 316 317 317 313 316 316 318 317 318 319 318 317 317 317 318 318 317 317 315 317 318 317 317 317 317 317 317 317 317 316 313 314 314 314 314 314 314 315 315 316 316 315
308 310 309 309 309 310 310 312 314 315 315 316 317 315 314 315 315 316 317 318 319 318 318 318 318 319 318 316 319 319 317 316 316 318 318 316 317 317 317 317 316 316 314 315 316 317 317 317 317 316 315 315 313 313
312 313 311 309 309 309 312 312 312 315 317 317 316 316 315 316 317 319 317 315 317 316 315 315 315 317 318 317 316 316 315 316 317 317 316 317 317 316 317 316 316 316 316 316 316 316 316 316 315 315 315 315 315 315
310 310 311 310 312 311 314 316 318 319 318 316 314 318 316 316 318 318 317 315 315 315 316 315 315 316 316 316 316 316 318 316 317 317 316 316 316 316 316 317 316 315 315 315 315 315 315 315 315 315 314 314 315 315
311 310 309 311 312 315 316 316 317 317 314 315 317 318 318 316 315 316 316 315 314 315 317 317 316 315 316 316 317 316 317 317 317 317 318 318 317 316 315 314 315 315 315 315 314 314 315 314 313 313 313 313 313 313
311 309 312 311 313 315 315 314 317 315 313 313 313 313 315 316 315 314 315 315 315 316 316 316 315 316 317 316 317 316 315 316 317 317 319 318 317 316 316 317 315 315 315 315 315 315 314 314 313 313 311 311 312 313
310 311 312 312 313 312 312 313 314 314 315 315 314 316 317 316 317 315 315 316 314 314 316 317 317 316 316 317 316 316 318 317 316 316 316 317 317 316 316 316 314 314 313 313 314 314 314 314 314 314 314 313 313 313
313 314 315 315 316 314 314 316 317 318 318 319 319 318 318 317 318 317 315 316 316 318 316 316 317 317 316 315 316 315 315 316 315 316 315 316 316 316 316 315 312 310 311 312 312 312 313 313 314 314 314 314 315 314
314 315 315 318 319 318 318 317 317 318 318 318 318 317 316 317 317 317 315 314 315 316 317 316 316 316 316 316 316 315 315 315 315 315 315 315 316 315 314 313 314 314 311 310 310 311 310 311 313 314 314 315 315 315

GFSWCAN_925_thetae_072.txt.gz
Theta_e
303 305 309 311 314 316 316 315 314 312 311 309 308 305 302 302 302 301 302 303 307 313 313 312 311 313 314 315 320 323 325 329 328 328 326 327 326 329 332 337 336 332 331 327 327 328 332 335 342 349 343 340 337 337
303 304 308 310 314 315 315 314 313 312 311 309 308 306 302 302 302 300 302 305 306 310 313 311 310 310 310 310 312 318 327 330 329 326 327 329 328 333 335 334 336 340 339 341 345 344 337 335 336 334 335 338 338 338
303 303 305 310 313 315 314 313 312 312 311 310 308 306 302 302 302 301 302 301 304 312 314 314 313 312 311 311 310 315 322 325 328 327 329 330 332 333 334 332 337 338 336 340 342 338 334 333 333 333 334 335 334 333
302 303 302 307 311 313 314 313 312 312 310 310 309 306 303 302 302 302 303 301 301 309 314 314 315 316 315 312 312 313 318 321 323 324 328 329 330 331 332 334 334 334 335 333 333 332 331 332 333 332 333 333 333 333
302 303 303 304 309 312 313 313 312 312 311 310 309 307 304 302 302 303 305 303 302 306 315 315 313 316 314 313 315 317 319 320 320 322 323 326 328 330 331 332 331 329 331 330 330 331 330 333 333 332 332 333 333 334
298 302 303 303 306 309 312 313 312 312 311 310 309 307 305 303 302 302 303 305 301 303 312 317 317 318 315 316 317 318 318 318 319 319 320 323 321 327 330 332 332 329 328 329 331 330 332 332 331 332 333 332 333 334
294 297 301 303 303 306 310 313 312 312 311 310 308 307 304 303 302 305 305 303 302 304 312 316 319 318 316 317 317 317 318 318 318 319 320 320 323 325 326 329 329 329 329 330 330 330 329 329 329 330 329 332 332 333
294 294 296 302 303 306 308 310 313 311 311 309 308 304 301 302 303 306 303 300 301 306 309 316 319 318 316 318 318 317 316 317 318 318 318 320 321 322 323 329 328 329 330 328 329 328 327 328 330 330 327 329 331 332
294 294 293 297 303 306 308 310 312 311 310 308 305 301 302 302 302 302 303 303 302 305 313 316 319 318 317 318 318 318 319 318 319 318 318 318 318 319 328 329 329 328 329 329 328 327 328 329 327 327 328 330 327 328
294 294 293 294 302 306 308 309 311 310 308 305 301 302 303 300 300 305 308 310 306 307 309 314 317 320 318 319 318 319 319 320 320 321 320 319 321 327 326 327 327 327 326 327 327 327 326 326 327 327 326 326 328 328
293 294 294 294 303 306 309 310 310 308 303 302 302 302 304 306 306 311 311 310 311 311 311 313 316 320 318 319 319 321 320 321 321 322 322 322 324 328 326 327 327 327 326 325 325 324 325 326 326 327 328 325 325 324
294 294 294 294 302 306 310 309 308 305 303 303 302 306 307 309 310 311 311 311 310 309 310 312 315 319 319 321 321 323 322 321 321 322 321 321 330 328 326 326 327 327 326 326 326 326 325 325 325 326 326 325 325 326
295 295 294 294 300 306 308 309 307 304 303 305 306 308 309 309 313 311 312 312 313 312 313 312 316 318 320 322 322 322 321 321 321 322 321 323 330 327 327 326 326 326 326 326 326 325 325 325 325 325 326 326 326 325
296 296 294 294 298 305 308 307 305 302 305 308 309 311 311 312 312 311 312 311 313 314 313 313 316 321 320 322 321 320 322 320 321 320 320 325 328 327 326 325 325 325 325 325 326 325 325 325 326 326 325 325 324 324
298 296 294 296 299 305 305 306 302 304 306 308 310 315 311 311 312 312 313 313 313 314 312 317 318 319 320 321 320 321 321 320 318 319 323 326 328 327 327 326 326 325 324 324 323 324 324 324 325 325 324 324 322 319
301 298 298 299 301 305 304 302 303 303 306 309 311 312 311 311 311 312 312 313 314 314 313 316 319 318 319 319 320 318 317 318 319 321 325 328 328 327 326 325 325 323 321 319 321 322 322 323 323 324 323 321 318 318
300 300 298 298 302 304 302 302 302 304 307 310 313 312 312 313 312 312 312 313 314 316 313 316 317 318 320 318 317 319 318 321 323 324 325 326 326 325 325 324 323 322 321 320 320 322 322 323 323 323 322 319 317 317
300 298 300 299 303 302 302 301 302 304 309 311 313 311 312 311 313 314 314 316 316 317 317 317 320 319 317 317 319 322 324 323 323 324 324 325 325 323 324 324 323 321 320 321 321 322 322 322 322 322 321 319 317 316
303 302 300 302 302 302 303 303 302 308 311 312 312 313 313 316 316 317 318 317 319 320 320 318 319 319 320 323 323 324 323 322 323 323 323 323 324 324 323 323 322 321 321 321 322 322 322 321 321 321 319 319 318 315
302 301 302 302 303 304 305 304 303 309 314 315 314 316 317 318 317 318 319 320 320 319 319 320 321 322 322 323 323 323 321 321 321 321 322 322 322 323 324 323 322 321 320 321 322 320 321 321 320 321 318 318 319 316
302 302 302 303 303 304 305 309 309 311 314 315 315 315 318 318 319 319 319 319 320 320 321 322 322 323 321 322 322 322 323 322 322 322 322 323 321 320 322 322 321 320 318 321 322 321 319 320 320 320 319 318 318 317
303 303 303 302 303 305 308 310 312 312 314 317 316 318 321 320 318 318 318 319 320 321 321 322 322 323 323 322 322 322 322 321 320 318 316 318 321 321 320 320 319 319 320 321 321 322 321 320 320 319 318 318 317 315
301 301 302 304 308 312 313 310 314 316 319 319 318 318 319 318 318 317 319 319 320 320 319 321 323 322 323 322 321 321 321 321 320 319 319 318 318 319 319 319 320 321 321 320 321 321 321 319 318 316 315 315 315 315
303 304 309 310 310 311 310 312 313 316 318 318 318 318 319 318 317 318 319 319 321 321 322 323 320 321 321 322 321 320 320 320 319 319 319 319 319 320 320 320 319 319 319 319 319 321 320 318 316 316 317 317 317 316
309 310 310 310 310 312 314 315 316 316 317 317 317 318 318 317 317 318 320 319 322 321 322 321 319 319 318 319 318 319 320 319 319 320 319 319 319 319 319 319 319 318 318 319 319 318 317 317 316 316 316 316 315 315
314 313 314 313 314 315 316 316 317 317 317 317 317 317 317 315 315 319 319 321 321 321 320 320 320 319 320 318 318 319 319 319 320 319 318 318 318 318 318 317 317 316 316 316 316 316 316 316 316 316 315 315 315 314
314 316 315 312 314 316 318 317 317 317 316 316 316 316 316 317 318 320 320 320 321 320 320 319 318 318 318 318 318 318 318 319 320 318 317 317 316 316 316 315 315 315 316 316 316 316 316 316 315 315 315 315 314 314
314 315 316 316 317 317 318 318 318 319 318 317 316 317 317 317 320 320 320 319 319 319 319 318 318 318 318 318 318 319 318 319 319 319 318 317 317 317 317 317 317 317 317 316 315 315 315 315 315 315 314 315 314 313
315 314 315 317 317 318 318 318 318 318 318 318 318 318 318 319 318 319 318 317 317 317 317 317 318 318 318 318 319 319 318 318 318 318 318 317 317 317 317 317 316 316 316 317 317 316 316 316 315 315 314 314 314 314
315 314 315 316 317 318 318 318 319 318 317 317 317 318 318 318 317 318 318 318 318 317 317 317 317 317 317 318 319 318 318 318 316 318 319 318 317 317 317 318 318 317 317 317 317 316 315 314 314 314 315 315 314 314
314 314 316 316 316 315 316 317 317 317 317 317 317 318 319 320 318 317 318 319 318 318 318 318 318 318 318 318 318 318 318 317 318 319 318 318 318 318 317 317 317 316 314 315 315 314 314 315 315 316 316 315 315 314
316 317 316 316 317 318 318 319 319 320 319 319 319 318 319 318 319 317 316 316 318 317 316 317 317 317 317 317 317 316 316 316 316 316 315 314 314 317 318 318 317 316 315 314 313 314 314 314 313 313 312 313 315 316
317 317 317 318 319 318 318 318 318 318 318 319 319 318 318 318 318 318 317 317 318 318 318 318 318 318 318 318 317 318 317 317 318 317 316 315 315 314 315 315 315 314 314 315 315 315 314 314 314 313 312 311 312 313